2020 XR
ephemeris date magn radius delta ra dec elong phase
Today16 Oct 202525.53.136 AU4.117 AU12h58m-15°17'8.9°2.8°
2020 XR - 2025-10-16
astro.vanbuitenen.nl


 
-1 year
-1 month
-1 day
Now
+1 day
+1 month
+1 year

The interactive orbit chart above shows the body's path through the solar system and its position at the given date. Green and blue lines are shown perpendicular to the ecliptic plane: Green if the path is above the ecliptic plane, blue if it is below. (Left-click and drag to rotate the view; Right-click and drag to move the view; Use scroll wheel to zoom in our out.)

The orbital elements of 2020 XR are:

            e (Eccentricity)                : 0.6141529
            a (Semimajor axis)              : 2.5079419
            i (Inclination)                 : 13.92842
            Ω (Longitude of ascending node) : 249.67998
            ω (Argument of perihelion)      : 163.16250
            M (Mean anomaly)                : 41.23981
            Epoch                           : 2025 May 05

            L (Longitude of perihelion)     : 233.31068
            B (Latitude of perihelion)      : 3.99811
            P (Orbital period in years)     : 3.97            
        

The light curve chart below shows the estimated development of the minor planet's magnitude.


The all-sky chart below shows the path of the minor planet over the same period as the light curve. The current position is marked yellow.





The following chart shows the path of the minor planet in the next few days. The field of view is optimized for (~10x50) binoculars and finderscopes. A more printer-friendly version of the same chart can be found below.




Ephemerides:
Date       Time       RA (2000)    DEC (2000)    delta   radius  elong  phase   PA    magn
2025-10-16 00:00 UT   12 58 53.7   -15 17 46     4.117    3.136    8.9    2.8   223   25.5 
2025-10-16 03:33 UT   12 59 05.1   -15 18 50     4.118    3.137    8.9    2.8   224   25.5 
2025-10-17 00:00 UT   13 00 10.8   -15 25 01     4.121    3.141    9.1    2.9   227   25.5 
2025-10-18 00:00 UT   13 01 27.7   -15 32 15     4.125    3.146    9.4    3.0   231   25.5 
2025-10-19 00:00 UT   13 02 44.4   -15 39 28     4.128    3.151    9.7    3.0   234   25.6 
2025-10-20 00:00 UT   13 04 01.0   -15 46 40     4.131    3.155   10.0    3.2   237   25.6 
2025-10-21 00:00 UT   13 05 17.4   -15 53 52     4.134    3.160   10.4    3.3   240   25.6 
2025-10-22 00:00 UT   13 06 33.6   -16 01 02     4.137    3.165   10.8    3.4   243   25.6 
2025-10-23 00:00 UT   13 07 49.7   -16 08 12     4.140    3.170   11.3    3.5   246   25.6 
2025-10-24 00:00 UT   13 09 05.5   -16 15 20     4.142    3.175   11.7    3.6   248   25.6 
2025-10-25 00:00 UT   13 10 21.2   -16 22 27     4.144    3.179   12.2    3.8   250   25.6 
2025-10-26 00:00 UT   13 11 36.7   -16 29 34     4.146    3.184   12.7    3.9   252   25.6 
2025-10-27 00:00 UT   13 12 52.0   -16 36 39     4.148    3.189   13.2    4.1   254   25.7 
2025-10-28 00:00 UT   13 14 07.1   -16 43 42     4.150    3.193   13.7    4.2   256   25.7 
2025-10-29 00:00 UT   13 15 22.0   -16 50 45     4.151    3.198   14.3    4.4   258   25.7 
2025-10-30 00:00 UT   13 16 36.7   -16 57 46     4.153    3.203   14.8    4.5   259   25.7 
2025-10-31 00:00 UT   13 17 51.2   -17 04 46     4.154    3.207   15.4    4.7   261   25.7 
2025-11-01 00:00 UT   13 19 05.5   -17 11 45     4.155    3.212   16.0    4.9   262   25.7 
2025-11-02 00:00 UT   13 20 19.6   -17 18 42     4.155    3.217   16.5    5.0   263   25.7 
2025-11-03 00:00 UT   13 21 33.4   -17 25 39     4.156    3.221   17.1    5.2   264   25.7 
2025-11-04 00:00 UT   13 22 47.0   -17 32 33     4.156    3.226   17.7    5.4   265   25.8 
2025-11-05 00:00 UT   13 24 00.4   -17 39 26     4.157    3.231   18.3    5.5   266   25.8 
2025-11-06 00:00 UT   13 25 13.6   -17 46 18     4.156    3.235   19.0    5.7   267   25.8 
2025-11-07 00:00 UT   13 26 26.5   -17 53 09     4.156    3.240   19.6    5.9   268   25.8 
2025-11-08 00:00 UT   13 27 39.3   -17 59 58     4.156    3.244   20.2    6.1   269   25.8 
2025-11-09 00:00 UT   13 28 51.7   -18 06 45     4.155    3.249   20.8    6.2   270   25.8 
2025-11-10 00:00 UT   13 30 04.0   -18 13 31     4.155    3.253   21.5    6.4   270   25.8 
2025-11-11 00:00 UT   13 31 16.0   -18 20 16     4.154    3.258   22.1    6.6   271   25.8 


    Terminology:
            
    delta:  distance between minor planet and earth in AU
    radius: distance between minor planet and sun in AU
    magn:   magnitude (brightness) estimate    
    ra:     right ascension in hours (24h = 360deg)
    dec:    declination in degrees
    elong:  elongation in degrees (angle sun-earth-minor planet)    
    phase:  phase angle in degrees (angle sun-minor planet-earth)        
    AU:     Astronomical Unit (mean distance between earth and sun: 149597870.7 km
    

Orbital elements provided by the MPC (Minor Planet Center).
Calculations by a modified version of AAPlus, a C# implementation of the AA+ project by PJ Naughter from the algorithms presented in the book "Astronomical Algorithms" by Jean Meeus.
NGC2000 dso catalog and star labels from VizieR as provided by the Strasbourg astronomical Data Center.
Tycho2 catalog from the ESO archive.